Wind_Speed
48 50 54 51 44 40 41 45 47 46 46 47 48 48 47 48 48 41 38 40 43 50 52 50 53 52 45 39 35 34 33 31 30 31 31 30 30 30 29 28 28 30 29 29 30 30 31 33 34 35 36 36 36 36 37 36 35 34 35 35 34 33 32 32 33 33 33 33 35 37 39 41 43 43 43 43 43 43 43 43 42 42 41 41 42 42
49 51 51 47 43 42 45 46 47 48 49 50 50 50 49 49 48 44 42 41 44 52 56 53 55 55 48 40 37 35 34 32 30 30 28 28 29 29 30 29 30 32 32 32 33 32 32 33 34 34 35 36 37 36 36 35 35 35 35 35 35 34 33 33 34 35 35 36 37 38 41 43 44 45 44 44 44 43 43 43 43 42 42 43 43 43
50 51 47 44 43 44 45 46 48 50 52 53 53 52 54 52 50 49 46 44 47 54 57 56 58 59 52 43 38 35 36 34 31 29 27 26 27 29 30 30 31 34 35 35 35 35 35 35 35 35 36 36 36 35 34 34 34 35 35 35 35 34 35 35 36 37 37 38 39 41 43 45 45 46 45 45 44 43 43 43 43 43 44 45 45 45
51 50 45 45 46 45 45 45 47 50 53 55 54 55 57 53 52 54 51 48 51 56 57 58 62 62 55 48 40 36 36 34 30 29 27 27 29 30 31 30 31 33 35 36 36 37 37 38 38 38 37 36 35 34 33 34 34 35 35 34 34 35 37 38 39 40 40 41 42 43 44 46 46 46 46 45 45 44 45 45 45 45 46 47 47 46
52 49 47 48 48 46 44 44 45 48 52 54 54 55 56 54 53 56 55 53 56 58 58 60 65 62 55 51 43 37 38 34 31 31 29 29 31 31 30 31 32 34 35 36 36 37 37 39 40 40 37 35 33 32 32 33 33 33 33 34 35 37 39 41 42 43 43 44 45 45 46 46 45 46 46 45 45 46 46 47 47 47 48 48 48 48
52 47 45 47 48 46 45 45 44 45 48 51 52 52 53 54 54 55 56 57 61 62 60 61 67 63 55 51 46 41 41 38 34 33 30 30 34 34 31 30 31 33 35 36 36 37 38 39 40 39 37 35 33 31 31 31 32 33 34 35 37 40 42 44 45 46 46 47 47 46 45 45 45 45 46 46 47 48 48 49 49 49 49 49 49 49
51 44 43 45 46 47 47 47 44 43 46 51 51 49 49 52 54 55 56 58 62 65 64 64 68 67 58 51 48 46 45 40 35 34 32 32 35 36 34 31 31 33 35 37 38 38 38 38 38 37 36 35 33 31 31 31 33 34 36 38 40 42 45 46 47 47 47 47 46 45 44 44 46 46 47 48 49 50 50 50 51 50 50 49 49 49
49 45 46 45 45 47 48 47 44 43 48 51 50 49 50 51 53 55 57 60 62 64 66 67 69 70 62 51 48 50 48 43 37 34 33 33 35 35 35 33 33 34 36 37 37 38 38 38 37 36 36 35 34 33 33 34 36 37 39 41 43 45 46 47 47 46 46 45 45 45 44 45 47 48 49 51 52 52 51 51 51 50 50 50 50 50
48 47 48 47 47 48 46 45 44 45 48 49 49 50 50 51 52 54 56 59 61 62 63 65 67 69 63 54 51 53 51 46 40 35 34 34 34 35 33 31 32 33 35 36 36 37 38 38 37 36 35 35 36 36 36 38 39 41 43 44 45 46 46 47 46 45 45 45 46 46 46 47 48 49 50 52 55 54 52 51 51 50 50 50 50 50
49 49 49 50 51 49 45 45 45 46 48 47 48 49 51 52 52 53 55 56 60 61 60 63 65 66 62 55 53 54 50 47 43 40 38 35 34 34 30 27 31 34 37 37 36 35 35 35 34 33 33 34 36 37 39 41 42 44 45 46 45 46 46 46 46 46 46 46 47 48 48 47 48 49 49 50 56 56 52 51 51 50 50 50 49 50
49 49 51 52 51 49 47 47 46 47 47 47 47 49 51 53 53 54 55 56 59 61 59 61 62 62 61 56 53 54 51 49 46 43 41 38 35 35 31 27 31 36 39 40 38 35 35 34 34 33 34 35 37 38 40 42 44 45 45 45 45 45 46 47 47 47 47 48 49 50 49 48 47 47 46 47 54 57 53 52 51 51 51 50 50 50
50 52 53 52 51 50 49 48 48 48 47 46 47 49 50 52 54 56 58 58 60 61 59 59 60 60 58 56 57 58 55 52 49 47 46 43 40 41 39 32 30 35 39 40 40 38 36 35 35 36 37 38 39 40 42 42 43 44 44 44 45 46 47 48 49 49 49 49 50 51 50 49 48 47 46 46 52 57 55 53 52 51 51 51 51 51
52 53 54 54 54 52 51 51 51 49 46 45 47 48 48 51 55 58 58 58 60 60 58 58 60 59 55 55 58 59 56 55 54 54 52 48 46 47 45 37 30 32 35 37 39 40 38 36 35 36 38 39 40 40 41 42 43 43 44 45 46 47 49 50 50 50 51 51 52 53 52 51 49 48 47 47 51 55 56 55 52 51 51 51 51 51
53 53 53 56 55 52 52 53 52 50 48 48 50 49 48 51 55 56 56 58 60 59 56 56 58 58 54 54 57 56 56 56 56 56 54 51 50 51 50 42 33 30 32 34 35 36 36 37 37 38 38 38 39 40 41 42 43 44 45 46 47 49 50 51 51 52 52 53 54 54 53 52 51 50 49 49 51 53 54 54 53 52 51 51 51 51
54 54 53 54 54 52 53 52 50 51 51 53 53 51 52 54 54 52 53 58 60 59 57 57 60 58 55 56 58 58 58 57 57 56 54 53 52 53 55 48 37 31 31 32 33 33 34 35 37 40 41 41 41 41 43 44 45 46 47 48 49 51 52 52 53 54 53 53 55 55 53 53 52 51 50 51 52 51 50 51 51 51 51 51 51 51
56 57 54 54 55 53 54 54 53 54 57 58 59 59 58 56 52 52 55 57 59 60 60 61 63 60 57 59 59 59 60 59 58 57 55 55 54 55 56 51 42 36 34 34 34 34 36 35 36 39 42 44 44 45 46 47 47 48 48 49 50 52 53 54 55 55 55 55 55 55 53 53 52 51 50 50 51 50 47 48 49 50 51 51 52 52
58 58 54 54 56 56 56 56 55 55 56 58 61 63 59 54 53 56 59 57 58 62 63 63 65 62 59 60 60 59 60 59 58 57 56 56 54 55 55 52 47 42 40 39 37 36 38 38 37 39 41 44 46 47 48 49 49 48 49 50 52 53 55 56 57 57 57 56 56 54 53 53 51 50 49 48 49 51 50 49 49 50 51 52 53 54
61 63 60 59 60 58 57 57 56 57 57 58 59 59 56 56 58 61 64 62 61 65 65 64 66 65 62 62 61 60 60 59 59 59 57 56 55 56 55 53 53 52 48 45 41 37 37 38 39 40 42 44 45 48 50 51 52 51 51 53 55 56 57 58 58 59 59 59 57 55 53 52 50 49 47 47 48 51 53 52 52 53 53 54 55 56
66 67 66 64 64 62 61 61 62 62 62 62 60 58 59 62 64 65 66 65 63 66 68 67 67 68 67 64 61 60 60 61 62 60 59 59 59 59 58 55 55 56 54 50 44 39 36 37 39 42 46 48 47 48 50 53 55 55 55 56 58 58 59 59 59 60 61 60 58 56 53 50 49 48 47 47 48 50 51 52 52 53 54 54 55 56
67 66 65 65 66 67 66 67 68 66 64 64 62 61 63 65 67 68 68 68 67 70 73 72 71 70 67 63 61 61 61 62 64 63 61 62 62 63 63 60 57 57 58 54 47 42 39 38 40 45 50 51 51 50 51 54 57 56 57 58 60 60 59 59 60 60 60 59 57 55 51 48 46 45 45 45 47 47 48 49 50 51 52 52 53 54
69 69 70 68 67 68 69 68 67 64 63 63 63 63 64 65 67 69 70 70 70 73 76 75 75 72 65 63 62 63 64 64 66 66 65 65 64 63 63 61 58 58 61 62 54 47 45 45 46 50 53 54 53 52 54 57 58 58 58 59 60 61 60 58 57 57 57 56 53 50 47 44 43 43 42 43 45 47 49 50 51 51 51 52 54 55
68 68 69 68 67 68 68 64 62 61 62 64 65 65 65 66 68 71 74 73 71 74 75 75 78 73 64 64 65 63 66 66 65 67 67 66 63 61 62 61 59 58 61 64 62 55 52 51 53 55 57 57 55 55 58 61 60 59 60 60 60 59 58 57 55 54 54 53 49 45 43 42 42 43 44 46 48 49 49 50 50 50 52 53 55 56
68 66 65 65 63 62 59 54 54 57 58 61 65 65 65 66 67 71 75 74 73 76 76 75 80 77 66 66 68 66 67 68 66 66 66 64 61 61 62 60 59 59 58 59 61 60 59 58 57 59 61 61 60 58 60 61 61 61 60 60 59 57 56 56 54 52 51 50 47 45 42 42 44 46 48 50 51 50 49 49 50 51 53 54 55 56
67 63 61 60 58 56 54 50 49 51 52 55 59 60 61 63 65 68 73 75 75 78 77 77 83 79 65 61 66 66 66 66 65 65 64 61 60 62 63 61 60 60 60 59 60 61 62 62 62 62 63 64 62 60 60 60 60 61 61 60 59 57 55 55 53 52 50 48 47 45 45 46 48 50 52 53 51 50 50 51 52 53 54 55 56 58
61 57 56 57 57 56 55 51 48 48 48 50 51 52 55 57 60 64 68 72 76 78 77 80 85 80 65 58 60 60 60 62 61 61 61 60 61 63 63 63 62 63 63 64 64 64 65 66 66 65 64 63 61 60 60 61 61 61 61 59 57 55 54 54 53 52 50 48 47 46 47 50 52 53 54 53 51 52 53 53 54 55 56 56 58 61
61 58 56 57 58 58 58 55 53 51 50 52 51 51 53 53 55 59 61 66 71 72 73 76 78 75 66 61 61 58 58 61 60 58 60 61 63 64 63 63 65 67 67 67 67 69 70 69 67 66 65 62 61 61 61 62 62 60 58 57 55 54 54 53 52 50 49 49 49 49 51 52 54 55 54 51 52 54 55 55 56 57 58 59 61 63
70 71 68 67 67 65 64 63 61 59 60 60 58 57 57 57 57 58 61 65 68 67 68 68 68 69 65 59 60 61 61 62 61 58 58 60 62 62 62 63 64 64 65 64 65 67 68 68 66 65 63 60 60 61 62 62 62 59 57 55 54 54 53 52 50 49 49 50 51 52 52 53 55 55 53 52 55 57 57 57 58 59 60 62 63 65
82 83 81 81 81 77 74 73 70 69 69 68 66 64 63 62 61 62 63 64 63 64 67 65 62 64 60 54 55 59 60 60 58 54 53 53 55 56 57 58 57 57 57 57 58 60 62 63 61 57 54 53 54 57 59 60 59 58 57 55 54 53 52 51 49 49 50 51 52 53 54 55 55 55 55 57 59 60 59 60 60 61 63 64 65 66
90 90 88 88 89 87 84 82 79 79 79 78 76 73 70 68 69 71 70 67 65 69 72 68 65 65 62 56 54 53 51 52 53 51 49 48 49 50 51 53 52 50 50 52 56 59 61 60 57 53 51 51 53 55 56 57 58 59 58 56 55 53 51 50 50 51 52 53 55 57 58 58 58 57 58 61 62 62 62 62 62 63 64 64 65 65
94 94 92 91 93 94 92 90 88 87 86 86 84 82 81 80 82 84 84 81 79 80 81 79 79 79 74 69 65 59 58 62 65 65 62 60 59 56 56 57 55 52 54 57 60 63 63 62 60 58 56 55 55 54 54 57 59 60 60 59 58 55 52 52 55 56 57 58 59 61 61 62 61 60 61 63 64 64 64 64 64 64 64 64 64 63
93 90 88 86 85 87 86 83 82 80 79 79 79 78 78 79 83 86 87 83 82 83 84 85 88 89 84 79 77 75 75 77 77 74 72 73 72 67 64 65 64 63 66 70 69 68 66 65 63 61 60 59 58 58 58 59 60 61 61 61 59 57 56 58 60 61 62 63 64 65 65 65 64 63 63 64 66 66 66 65 65 64 63 63 63 63
90 88 87 83 81 82 80 77 77 76 76 78 77 74 74 76 78 79 76 74 75 80 83 85 88 91 88 84 82 82 82 80 77 76 77 79 78 75 71 70 69 68 69 71 71 69 67 66 64 62 61 61 62 64 64 64 64 64 63 61 60 60 62 64 64 65 66 67 68 68 68 67 65 64 64 66 67 67 66 65 64 63 63 63 64 65
84 86 86 84 84 87 87 86 85 82 80 82 81 77 75 74 73 71 71 72 74 76 79 82 84 84 81 80 79 80 80 81 81 83 83 81 78 73 69 68 66 65 65 65 65 65 65 65 64 63 62 62 64 67 68 69 69 68 66 63 63 65 67 68 68 69 69 69 70 70 69 67 66 65 65 67 67 67 65 64 63 63 63 64 65 66
82 83 85 86 87 90 90 89 87 82 81 85 86 80 75 72 70 70 73 74 73 72 73 76 77 76 75 76 78 78 80 82 84 83 78 71 66 63 61 59 58 59 60 62 62 63 64 65 65 65 64 64 66 69 71 72 73 72 69 68 69 71 72 73 74 73 73 71 70 69 67 67 66 65 66 66 66 65 64 62 62 62 62 63 65 66
81 81 81 82 83 85 82 78 77 80 82 85 85 81 78 76 73 73 75 75 74 75 78 80 81 78 76 76 76 75 76 77 75 69 63 59 57 57 56 54 52 53 55 58 61 63 64 65 67 68 68 68 70 74 76 76 76 76 75 75 76 77 78 78 77 76 74 72 70 68 67 66 65 65 65 65 64 63 62 61 61 61 62 63 64 65
75 76 77 77 78 79 78 76 79 84 85 84 84 81 79 78 78 79 82 83 81 82 83 85 85 82 78 76 74 73 71 67 64 61 59 58 58 56 54 52 51 53 56 59 63 65 66 67 68 70 72 74 76 78 80 80 80 81 80 80 81 81 81 80 78 76 74 71 69 68 67 66 66 65 65 64 63 61 60 60 60 60 61 61 61 61
78 79 81 83 83 83 85 88 90 91 91 89 86 82 81 82 81 81 82 81 80 80 80 80 82 82 80 78 76 74 71 69 68 67 65 64 64 62 60 60 60 63 65 67 70 73 74 74 74 75 77 79 81 81 82 82 83 83 83 82 83 83 83 81 79 76 73 71 69 68 67 67 66 65 64 62 61 60 59 59 58 57 57 58 58 58
81 82 83 86 88 89 90 92 93 94 95 93 89 85 82 80 74 69 67 69 71 74 75 76 79 82 81 81 80 79 77 75 74 71 68 67 67 66 65 64 64 66 69 70 72 74 76 77 77 79 80 82 82 81 81 81 81 82 82 82 83 83 82 81 79 76 73 71 71 70 68 67 66 65 63 61 60 59 58 56 55 55 55 56 56 57
77 77 76 74 72 71 74 77 77 78 78 77 76 74 70 66 61 56 59 66 71 75 76 76 78 82 82 82 82 80 77 75 73 71 70 70 69 68 68 68 68 70 72 73 74 75 75 76 77 77 78 78 78 78 78 79 79 79 79 80 80 79 78 77 76 74 74 73 73 72 71 70 68 65 62 60 58 56 55 54 53 53 54 53 54 54
79 78 76 71 64 60 62 66 66 65 65 66 67 67 67 67 66 66 72 78 80 80 81 81 82 82 81 78 77 75 73 73 73 72 72 71 70 70 71 70 68 68 70 70 70 70 71 72 72 72 71 72 72 73 74 76 76 75 75 76 76 76 75 74 73 73 74 74 74 73 72 71 67 63 60 57 55 53 53 52 52 51 51 51 52 53
83 83 83 82 80 77 77 78 78 76 74 74 73 72 74 75 76 78 84 88 87 86 86 85 83 81 78 76 77 78 78 77 75 72 71 69 68 67 68 67 64 62 62 62 62 63 64 65 67 68 68 68 69 69 71 72 72 71 71 73 73 72 72 72 72 73 74 75 74 73 73 71 68 65 63 59 56 54 52 50 49 48 47 48 49 51
86 85 84 84 85 86 86 87 86 84 80 78 76 76 77 77 78 81 84 85 85 84 81 80 81 80 79 79 80 81 80 78 75 72 70 69 67 65 64 64 62 60 58 59 60 61 62 63 64 66 66 66 66 67 69 71 70 68 68 69 70 70 71 71 73 73 74 75 76 75 74 73 71 70 67 61 57 54 51 49 47 46 46 47 50 54
86 87 87 86 85 84 85 86 85 85 84 81 79 79 76 74 76 80 82 81 80 80 78 78 79 79 79 78 78 79 79 77 74 73 71 70 68 67 66 64 63 61 59 58 59 60 62 63 63 63 64 64 64 63 64 66 66 65 64 65 67 68 69 70 72 74 75 76 76 76 76 75 74 72 68 62 58 55 51 49 48 47 48 51 55 59
82 82 83 82 76 72 71 74 78 83 85 84 84 84 80 75 73 72 70 68 70 73 75 75 75 75 77 77 77 77 78 77 75 75 74 72 71 71 68 64 62 61 58 56 58 60 62 63 63 63 63 61 58 55 54 54 54 55 57 60 64 66 67 68 70 73 75 76 76 76 77 75 73 70 65 62 59 56 52 50 51 51 52 54 57 59
79 77 77 78 76 71 68 68 70 72 74 77 81 84 84 85 85 83 79 77 77 78 80 80 80 81 81 80 80 80 80 80 80 78 77 74 73 72 70 66 63 61 59 59 62 64 63 62 61 62 61 59 55 52 50 50 49 49 51 55 59 62 65 67 69 71 72 73 74 75 74 72 69 66 63 61 60 57 55 54 55 55 55 56 57 59
79 78 78 79 81 81 80 76 72 69 67 67 70 74 79 84 88 91 91 89 87 86 87 88 89 89 87 86 86 86 85 83 81 79 78 76 75 75 74 71 67 65 64 65 66 65 64 63 63 63 62 60 58 57 54 53 53 53 53 54 56 59 62 66 69 71 72 72 72 72 71 70 69 66 63 62 62 61 59 59 59 59 58 58 59 60
76 77 79 80 82 84 85 84 82 80 78 73 69 69 72 77 81 85 88 90 92 92 92 91 90 90 90 91 90 87 84 82 80 79 79 79 79 79 79 76 72 69 69 69 69 68 67 67 67 67 67 65 65 64 61 58 57 57 58 57 57 58 60 63 67 70 72 73 73 72 70 68 68 67 65 63 64 64 65 65 65 64 64 63 62 63
71 73 76 78 80 81 82 83 84 86 88 86 83 80 77 76 76 79 83 87 91 94 95 95 92 87 84 83 83 83 82 81 82 82 82 82 83 84 82 79 76 75 75 75 74 73 72 71 70 70 71 70 69 69 68 65 63 62 62 62 62 62 63 65 67 71 74 76 77 76 73 69 66 65 66 67 68 69 71 72 72 72 71 70 69 70
65 68 71 73 76 79 80 79 79 82 86 88 89 92 93 91 90 90 91 92 92 93 95 96 95 90 85 81 80 80 80 80 81 82 84 84 85 84 81 79 79 82 84 83 81 78 77 75 73 73 74 74 73 74 75 73 70 68 67 67 67 67 67 68 71 74 76 78 79 80 79 75 71 68 69 72 74 74 74 75 77 77 78 78 77 77
60 63 64 65 70 74 75 74 74 77 81 83 84 86 90 93 96 98 100 101 101 101 100 99 97 95 92 89 86 87 88 88 87 86 85 83 81 79 79 81 85 89 91 90 87 83 80 79 78 78 78 78 77 79 80 78 75 74 74 75 75 76 76 75 75 77 78 79 80 82 83 82 79 75 75 76 77 76 76 78 79 81 82 82 81 80
56 58 58 60 63 66 68 69 70 72 75 77 79 80 81 84 87 91 94 97 100 103 106 107 107 105 102 100 99 100 103 105 105 104 102 97 91 90 91 94 96 97 96 94 92 87 83 81 81 82 83 84 84 84 84 82 82 83 84 83 82 82 82 81 80 79 80 80 81 81 81 82 80 77 76 76 77 78 79 81 83 84 85 85 85 85
Wind_Direction
283 282 280 285 295 298 292 287 287 288 287 286 285 285 286 286 287 291 293 292 293 292 290 292 292 292 293 294 294 293 292 292 293 292 292 293 292 291 293 292 289 286 284 282 281 282 283 285 288 291 290 288 286 283 281 281 279 278 278 281 283 283 283 283 283 283 282 282 283 283 284 285 284 284 283 284 285 286 287 288 288 288 288 289 289 288
283 281 283 291 297 292 286 284 285 286 285 285 284 285 285 285 287 289 288 289 290 287 287 289 289 289 291 292 291 291 291 292 292 291 291 290 288 289 290 290 289 289 288 287 286 286 285 284 287 291 292 289 286 283 280 278 276 276 277 280 282 283 283 282 280 280 280 281 282 283 284 284 284 284 284 285 286 287 288 288 288 288 289 290 290 289
283 282 287 294 292 287 285 285 284 283 283 283 284 285 285 286 289 287 287 288 287 284 285 288 288 288 289 289 289 291 290 290 290 289 290 288 285 289 292 292 291 290 289 288 288 287 286 286 288 291 292 289 285 283 280 277 275 275 277 280 282 283 282 281 280 279 280 280 282 284 285 285 285 286 286 287 288 289 289 289 288 288 289 291 291 291
281 284 290 290 286 286 286 285 284 282 282 282 284 285 285 288 291 288 288 289 285 284 285 287 286 285 287 288 289 291 289 289 291 290 289 285 284 288 292 293 290 287 285 285 285 285 287 289 290 291 292 289 284 282 281 279 278 278 280 282 283 283 282 281 281 281 282 284 285 286 287 287 287 288 289 291 292 291 290 290 289 289 290 291 292 291
279 283 287 286 285 285 285 285 284 282 281 282 282 283 286 288 289 288 289 289 286 284 285 287 286 285 286 288 288 289 287 288 292 291 287 284 285 286 287 289 288 286 285 284 285 285 287 290 291 292 291 288 284 281 281 280 280 280 281 282 283 283 283 283 284 285 287 288 288 289 289 289 290 291 292 293 293 292 291 291 290 289 290 291 291 291
276 280 283 283 284 286 286 284 282 281 283 282 280 281 283 285 285 285 287 287 286 285 285 286 285 286 288 287 288 289 287 288 290 288 285 286 288 289 288 286 285 285 286 287 287 288 289 291 291 290 288 286 283 281 280 280 280 280 281 282 284 285 285 285 286 287 288 289 289 290 291 291 292 293 293 293 292 292 291 290 289 289 290 290 290 290
274 278 279 279 282 284 282 281 281 283 283 282 281 281 281 280 281 282 283 283 283 284 285 284 284 286 289 289 291 291 288 287 287 286 289 291 291 292 291 289 287 285 285 286 287 288 289 290 289 287 283 282 281 280 280 280 280 281 283 284 285 285 285 285 286 287 288 289 290 291 291 292 293 293 293 291 290 290 289 289 289 289 290 291 291 290
276 279 277 276 278 277 278 281 284 284 281 280 282 283 280 278 278 278 279 279 280 282 283 282 282 285 289 294 295 292 290 289 289 292 295 294 291 291 292 294 293 289 286 285 285 286 286 287 286 283 281 279 278 279 279 280 282 283 285 285 285 285 285 285 286 287 288 289 290 291 291 291 291 291 291 291 290 288 288 288 289 289 291 292 291 291
277 276 276 276 275 274 276 280 281 280 279 281 282 281 280 280 279 279 279 279 279 280 279 280 281 283 289 296 295 291 290 291 296 299 297 294 291 290 291 295 297 295 291 288 287 285 284 284 283 282 281 278 277 278 280 281 283 285 286 286 286 285 285 286 286 288 289 289 289 289 289 289 289 289 290 291 290 288 287 287 288 289 289 290 289 289
274 274 275 274 274 276 278 278 277 277 278 279 279 280 281 281 281 281 280 279 279 278 277 279 281 284 290 294 292 288 289 293 297 297 295 294 291 289 290 294 297 296 293 291 289 287 284 281 280 280 279 277 276 276 278 280 282 283 285 285 285 284 284 284 285 286 287 287 287 286 285 285 285 286 287 289 290 288 287 287 286 286 286 286 286 286
273 273 272 273 275 278 278 278 278 277 277 278 279 280 280 280 280 280 279 278 277 276 277 280 283 286 289 292 290 289 291 292 293 293 294 293 290 287 287 291 295 295 293 291 289 286 284 281 279 278 277 275 275 275 275 277 279 280 281 281 281 281 281 281 282 283 283 284 284 283 283 282 281 280 281 285 289 289 287 286 285 284 283 282 281 281
273 272 272 273 275 276 277 277 278 277 278 280 280 279 278 278 277 275 275 275 275 276 279 282 284 285 284 286 288 290 291 292 293 294 292 291 290 289 287 290 296 294 291 291 291 288 286 282 279 277 276 275 274 274 273 274 275 275 276 276 276 276 276 277 278 280 281 282 282 282 282 281 279 278 276 279 285 286 286 284 282 281 280 279 279 278
273 273 274 274 273 275 277 277 277 277 277 278 277 276 276 275 273 272 273 273 274 277 281 284 285 283 281 281 284 287 290 292 294 293 292 292 292 291 289 293 300 296 290 289 289 290 290 287 281 277 275 274 273 271 271 271 271 271 271 272 272 273 274 275 277 278 280 282 283 283 284 282 280 278 276 278 281 281 282 282 280 278 277 276 276 276
274 275 276 277 278 279 279 278 277 276 275 273 272 271 271 271 271 271 273 275 277 278 280 281 280 279 282 284 285 287 289 290 290 289 291 293 293 292 291 295 302 298 290 288 286 285 287 287 285 281 276 273 271 271 270 270 270 270 270 271 271 272 273 274 276 278 280 281 282 284 284 283 282 280 278 279 279 277 278 279 277 276 275 275 275 275
275 275 276 279 281 281 280 279 279 278 275 271 270 267 266 267 268 271 274 276 277 277 277 276 274 277 283 285 286 288 288 287 287 289 291 293 293 293 293 297 302 295 288 288 287 285 283 282 281 280 277 275 273 272 272 271 271 271 271 272 272 272 273 274 275 277 279 279 280 282 283 283 282 281 279 278 276 272 274 277 277 276 276 275 275 275
276 275 277 279 279 278 278 278 278 279 277 274 271 267 266 268 270 272 272 273 274 275 274 274 275 278 281 282 283 284 285 286 288 290 291 291 291 292 293 297 299 295 290 288 286 283 281 278 275 274 274 275 275 274 272 271 271 272 272 272 272 272 272 273 274 276 277 278 279 281 282 281 280 279 278 277 273 268 270 275 277 277 276 276 276 277
280 279 277 277 277 276 276 275 276 277 277 275 272 269 271 272 272 273 272 272 271 271 271 274 275 277 278 279 279 281 282 285 286 287 288 288 291 293 295 298 298 295 291 286 283 281 278 276 272 269 270 272 273 273 273 272 272 271 271 272 272 273 273 274 275 276 277 277 279 280 281 281 279 278 276 274 270 267 267 271 275 276 277 278 278 279
281 281 278 276 276 276 275 275 275 274 274 274 274 274 275 275 275 276 276 275 272 270 270 271 272 273 274 276 279 281 283 285 285 285 286 289 291 293 295 298 298 296 292 287 284 280 277 275 272 268 267 268 269 271 273 274 275 274 274 274 274 274 275 276 277 278 279 279 280 280 281 280 278 277 275 272 269 268 268 271 274 276 278 279 281 282
282 282 280 277 275 273 273 273 273 273 273 275 277 276 275 275 277 278 277 276 275 273 271 269 268 269 272 275 278 281 282 283 283 284 286 289 291 293 294 296 296 295 293 290 287 284 278 275 273 270 268 268 267 267 270 273 275 276 277 276 275 276 276 277 278 279 280 280 281 282 282 279 276 275 274 271 271 271 273 275 277 278 280 281 282 283
283 280 278 279 277 274 272 271 271 273 276 278 278 276 274 274 276 276 274 274 275 273 272 269 267 268 273 276 276 278 279 279 280 282 284 287 290 293 294 295 294 293 291 289 288 287 283 279 276 273 271 271 268 266 267 271 274 276 278 278 278 278 278 278 279 279 280 280 281 281 280 278 275 274 273 273 274 276 278 281 283 284 285 284 284 283
283 280 278 279 278 276 276 275 274 275 277 277 275 275 275 276 277 275 273 273 273 273 273 272 269 268 270 272 272 274 275 276 279 281 283 284 287 289 291 293 294 292 291 290 290 289 287 285 281 277 274 272 270 269 269 271 274 276 277 277 278 278 278 277 277 277 278 278 278 278 277 276 275 275 276 277 279 281 284 286 287 287 287 286 285 285
282 279 277 275 275 276 278 279 277 276 275 275 275 275 276 277 276 274 272 273 274 272 270 271 270 268 266 267 269 271 273 275 277 280 281 283 286 289 290 290 290 289 289 291 292 293 291 287 284 282 278 274 271 270 271 273 276 278 278 278 278 278 277 277 275 274 274 275 275 275 273 273 275 277 279 281 282 283 284 285 285 286 286 285 285 284
279 277 277 276 276 276 276 275 275 275 276 275 274 274 275 275 274 272 272 273 271 268 266 266 266 267 267 268 270 270 272 274 275 275 278 281 285 288 287 286 284 283 284 286 289 291 290 287 285 284 283 280 277 274 274 276 278 279 279 280 280 279 277 276 274 272 271 271 272 272 271 274 279 282 282 282 282 283 283 283 284 284 284 284 284 285
276 275 277 278 278 277 275 274 273 274 274 273 273 273 272 271 271 270 269 269 266 263 264 264 263 267 271 271 271 271 270 271 272 274 277 281 283 283 281 279 278 278 279 280 282 283 283 283 282 282 282 282 281 279 278 278 279 280 280 280 280 278 276 274 272 271 271 272 271 269 271 278 283 284 284 283 282 282 283 283 283 283 283 284 285 286
272 273 276 279 279 278 277 276 275 275 273 272 271 270 268 267 267 267 267 267 264 263 265 264 264 269 274 273 271 270 268 270 273 276 279 281 279 277 277 277 277 278 279 280 280 280 279 278 279 280 281 282 281 280 279 280 281 281 280 279 278 275 273 273 272 272 274 274 271 269 273 280 283 285 285 282 282 284 284 283 282 283 284 285 286 287
268 269 272 275 276 276 275 275 276 276 272 271 270 269 269 269 269 270 271 269 268 269 269 267 269 273 273 269 265 264 267 272 277 278 278 276 275 274 274 276 277 279 281 282 282 282 280 279 279 279 280 280 279 279 279 280 280 279 277 276 275 272 271 273 274 274 275 275 273 273 277 281 284 286 283 280 282 285 283 282 283 283 284 285 286 287
270 270 271 272 272 273 273 274 275 273 270 270 270 271 271 271 272 275 276 274 274 273 269 267 270 273 271 266 263 262 265 271 275 276 274 273 272 273 274 276 278 280 283 285 285 284 281 278 277 277 278 277 277 278 278 277 275 273 271 271 270 268 269 271 273 272 274 275 274 275 278 282 286 286 280 279 284 284 281 281 282 283 283 285 286 287
272 273 273 274 274 274 273 273 272 271 269 270 270 270 269 270 272 274 274 275 276 272 268 268 270 272 271 268 265 264 265 269 271 273 273 273 275 276 277 276 277 281 283 284 285 284 279 276 275 275 275 274 274 274 274 272 270 268 267 266 266 265 266 268 270 271 272 273 274 277 281 284 286 284 279 279 283 282 279 280 281 281 282 284 285 286
273 273 274 274 275 276 276 275 274 273 272 272 271 271 270 270 271 273 273 274 273 271 270 272 272 273 274 273 271 269 269 270 271 271 272 276 278 280 278 276 275 277 279 280 281 282 280 277 275 273 272 272 271 270 269 267 267 266 266 266 265 264 265 267 270 271 272 274 277 281 284 286 287 284 279 279 281 281 279 279 280 281 282 283 284 285
273 274 275 275 276 277 278 278 278 278 277 276 276 275 275 274 274 274 274 274 273 272 274 276 276 275 275 275 275 274 274 276 276 274 275 277 278 279 279 278 276 276 277 277 278 280 280 279 277 276 274 272 269 268 266 265 265 266 266 266 266 266 268 270 272 272 273 277 280 284 286 288 288 285 281 279 280 279 278 277 279 280 281 282 282 282
272 275 276 277 278 278 278 279 279 279 280 280 279 278 277 277 277 277 277 277 276 276 277 278 278 278 277 277 278 278 278 280 281 281 281 280 280 282 281 279 277 275 276 277 277 277 277 276 275 274 272 270 268 268 267 266 265 265 265 265 266 268 271 273 273 274 275 278 281 284 287 288 286 284 280 278 277 277 275 275 277 278 279 280 281 281
270 273 274 275 276 275 275 276 276 278 280 279 277 277 277 278 279 279 278 278 278 280 280 279 279 280 281 281 280 280 280 282 284 285 284 284 284 285 284 280 278 276 274 275 276 275 273 271 269 268 267 267 268 268 268 267 266 265 265 266 267 268 271 273 275 276 278 279 282 284 286 286 284 281 278 275 274 274 273 274 276 277 278 279 280 282
269 270 272 273 274 274 274 274 276 279 278 274 274 277 278 279 279 279 277 277 278 279 279 279 280 282 283 282 283 283 283 284 285 285 286 287 287 286 283 280 278 276 275 276 276 272 267 263 261 261 261 263 265 267 267 266 265 265 266 267 268 270 273 276 279 280 281 283 284 285 284 283 281 278 275 272 272 272 272 273 276 278 279 281 283 285
268 269 270 272 275 276 276 276 278 277 274 273 276 278 278 277 277 277 277 279 280 280 280 281 283 283 282 281 283 283 283 283 284 286 287 287 285 283 280 277 274 273 273 273 269 263 257 256 257 258 259 260 263 267 269 269 268 268 268 270 272 274 277 280 282 283 284 285 284 283 281 279 277 274 272 271 271 271 272 274 277 279 282 284 287 289
268 270 271 271 273 275 275 275 274 271 271 274 277 277 276 277 277 277 279 280 282 283 284 285 285 283 282 280 280 280 280 282 284 285 284 282 280 278 276 272 268 266 264 262 258 254 253 254 257 258 259 262 266 270 272 272 273 273 273 274 277 278 280 281 283 284 284 283 280 278 276 275 273 271 270 269 270 271 273 275 278 281 284 287 289 291
267 267 268 268 268 269 270 269 268 268 271 274 274 274 276 277 278 280 282 283 283 282 282 282 281 281 281 280 279 279 279 279 279 277 276 275 272 269 265 262 259 255 253 253 253 253 253 254 256 258 261 265 269 270 271 272 273 274 275 276 278 280 281 281 282 282 281 278 275 273 272 271 269 268 268 269 270 272 275 278 281 284 286 288 289 290
264 264 265 266 266 266 267 268 269 271 272 272 273 275 277 277 279 281 282 282 280 277 275 275 276 277 277 277 277 277 277 277 275 274 272 270 268 267 264 262 260 258 257 257 256 256 256 257 257 258 260 263 266 268 269 270 271 272 273 274 276 278 279 280 280 279 277 274 271 270 269 268 267 267 267 269 271 274 278 280 282 284 287 289 290 290
265 266 267 268 268 268 270 271 272 273 274 274 275 277 278 279 280 280 278 276 274 274 274 274 275 275 275 275 276 277 278 278 276 274 272 270 271 272 269 266 264 264 263 262 261 261 261 262 261 260 261 262 264 266 268 269 270 272 273 274 274 275 276 276 276 275 273 271 270 269 268 267 267 267 268 270 273 276 278 280 282 285 288 289 289 289
263 264 266 269 271 272 273 274 274 275 276 277 276 276 277 277 276 273 270 270 272 276 278 278 278 278 278 278 278 278 278 277 275 275 274 274 274 272 269 268 269 269 268 267 266 266 266 266 265 265 265 266 267 269 270 271 272 273 274 274 273 273 273 273 272 271 271 270 270 269 268 267 267 269 271 273 275 276 278 280 283 285 287 287 289 290
260 260 260 262 263 264 266 267 266 267 269 271 271 271 271 270 268 268 269 271 273 276 278 279 279 280 279 278 277 277 278 278 277 276 275 275 274 273 271 270 269 268 266 265 266 268 268 268 267 266 266 267 268 269 270 271 272 273 273 272 272 273 273 272 271 270 269 269 269 269 269 269 271 272 274 275 276 277 278 280 282 284 285 287 288 290
263 262 260 259 259 259 260 261 262 263 265 267 268 268 268 267 268 269 270 270 271 273 274 275 276 275 275 275 275 276 278 279 278 277 276 275 275 274 273 271 268 264 261 261 263 265 267 267 267 266 265 265 266 266 266 267 268 270 270 270 271 272 272 271 269 268 268 268 268 269 270 272 273 274 274 275 275 276 277 278 280 282 284 285 287 289
267 265 263 262 261 261 260 261 263 264 265 266 267 267 267 268 269 268 268 268 270 270 270 270 270 270 270 272 274 276 277 277 277 276 276 276 276 274 272 269 264 259 257 259 261 262 264 264 265 264 264 264 264 264 263 263 264 266 267 268 269 270 269 269 269 269 269 269 270 270 271 272 272 272 272 273 274 274 275 276 278 279 281 283 285 287
268 267 267 267 267 266 264 263 262 262 262 262 264 265 266 268 268 267 267 268 268 268 267 266 267 269 270 271 273 274 274 274 273 273 274 275 275 274 272 267 261 257 257 259 261 263 265 265 265 264 264 263 262 261 261 261 262 264 265 266 267 268 269 271 271 271 271 272 273 272 272 271 270 269 269 271 271 271 271 273 275 276 278 281 284 286
267 267 268 267 265 265 264 262 261 262 261 261 261 261 261 262 262 262 263 264 265 266 267 267 268 269 271 271 271 271 270 270 270 271 272 273 272 271 268 265 261 258 259 261 265 267 267 265 265 265 263 261 259 258 259 261 264 266 266 265 265 266 268 269 270 271 271 271 271 270 269 268 266 265 266 267 267 268 268 269 270 272 275 279 283 285
266 265 264 262 259 256 255 256 258 259 260 261 261 260 258 257 257 257 258 260 262 264 265 266 267 267 268 268 268 268 267 268 270 271 271 271 271 269 264 260 258 257 258 264 269 269 266 265 265 264 261 257 254 254 259 263 266 268 269 267 265 265 265 266 267 268 269 269 268 268 268 266 264 264 263 263 264 265 264 265 267 269 273 279 283 284
265 264 262 260 258 255 254 254 255 255 256 256 256 255 255 255 257 258 258 259 261 262 263 264 265 265 265 265 265 265 265 266 268 269 269 269 270 268 264 260 257 256 259 265 268 267 265 265 266 264 260 255 251 252 258 262 263 266 268 267 267 267 267 267 267 267 268 269 269 269 268 267 265 264 263 262 262 262 262 263 266 268 272 277 280 282
262 263 263 262 261 259 257 256 255 254 254 253 251 250 251 253 255 257 258 258 259 261 262 262 261 262 262 262 261 262 263 264 265 266 266 267 267 267 264 260 257 257 261 265 266 265 265 265 266 265 262 257 253 253 255 258 261 264 265 266 267 269 270 269 269 269 269 270 270 271 270 268 267 265 263 262 261 261 261 262 264 267 271 275 279 282
263 262 262 263 263 263 262 261 258 255 255 254 252 251 252 253 254 256 256 257 258 259 259 259 258 257 255 254 255 257 260 262 264 265 265 264 263 262 261 259 258 261 265 267 266 265 265 265 265 265 265 263 259 255 254 256 260 262 263 264 266 268 270 270 269 268 268 268 269 270 271 270 268 265 263 263 262 261 261 262 264 267 271 274 279 282
269 267 265 264 264 263 263 264 263 260 259 257 256 256 255 255 255 256 256 256 256 256 256 256 256 254 252 250 251 253 256 259 261 261 261 260 258 256 256 257 261 266 269 269 267 265 264 263 262 263 265 266 264 261 257 256 258 260 261 262 264 267 269 270 268 267 266 266 266 267 268 268 267 265 263 263 263 263 263 264 266 268 271 274 278 281
275 273 271 270 269 267 266 266 268 266 264 261 260 260 259 258 258 257 257 257 256 256 256 255 255 254 254 253 252 253 256 258 259 258 258 256 253 252 255 260 265 269 270 269 267 264 262 261 261 262 264 266 266 264 261 258 257 259 261 262 263 265 267 269 268 266 266 266 265 264 264 265 266 265 264 264 265 266 267 268 269 271 271 273 276 280
277 277 276 276 276 274 271 270 271 272 270 267 264 264 264 263 262 260 259 259 258 257 257 256 256 256 255 255 256 257 258 259 260 260 260 259 256 256 259 263 266 267 268 267 265 261 258 258 259 262 265 267 268 268 266 263 261 262 264 264 264 263 265 266 266 265 266 266 265 264 263 263 265 265 265 265 266 268 270 271 273 274 273 273 275 278
Height
5812 5808 5804 5808 5816 5818 5815 5809 5806 5806 5804 5802 5800 5799 5798 5795 5795 5801 5803 5801 5797 5787 5784 5787 5783 5782 5788 5792 5794 5795 5794 5795 5795 5793 5792 5792 5790 5789 5789 5788 5788 5786 5787 5787 5785 5785 5784 5782 5781 5781 5780 5779 5779 5778 5777 5777 5776 5776 5775 5775 5775 5775 5775 5774 5774 5773 5773 5773 5772 5772 5771 5770 5770 5769 5769 5768 5767 5767 5766 5765 5764 5763 5763 5763 5762 5761
5807 5802 5802 5809 5813 5811 5807 5805 5803 5801 5799 5797 5795 5794 5793 5791 5792 5796 5797 5797 5794 5782 5778 5781 5777 5775 5782 5786 5788 5789 5789 5790 5792 5791 5790 5789 5787 5785 5785 5785 5784 5782 5782 5782 5781 5780 5779 5778 5778 5777 5776 5775 5773 5773 5772 5771 5771 5771 5771 5770 5770 5770 5770 5770 5769 5768 5768 5768 5767 5767 5766 5764 5764 5763 5763 5762 5761 5761 5760 5759 5758 5757 5757 5757 5756 5756
5799 5796 5802 5807 5806 5804 5802 5801 5800 5797 5794 5791 5791 5790 5787 5787 5789 5788 5791 5793 5788 5778 5774 5775 5769 5767 5774 5780 5783 5785 5784 5785 5786 5787 5787 5785 5783 5782 5781 5781 5780 5778 5777 5777 5776 5775 5773 5773 5773 5772 5771 5770 5768 5768 5767 5766 5766 5766 5766 5766 5765 5765 5765 5764 5764 5763 5763 5762 5761 5761 5760 5758 5758 5757 5757 5756 5755 5755 5754 5753 5753 5752 5752 5751 5751 5750
5790 5792 5800 5800 5798 5798 5798 5797 5795 5792 5789 5787 5787 5785 5781 5784 5784 5780 5783 5786 5781 5774 5770 5769 5762 5759 5766 5772 5777 5781 5779 5779 5782 5782 5783 5781 5780 5779 5777 5777 5776 5774 5773 5772 5771 5770 5768 5767 5767 5767 5766 5765 5764 5763 5762 5762 5761 5761 5761 5761 5761 5760 5759 5759 5758 5757 5757 5756 5755 5755 5754 5753 5752 5751 5751 5750 5750 5749 5748 5748 5747 5747 5746 5745 5745 5744
5785 5790 5794 5792 5791 5792 5792 5792 5790 5787 5785 5784 5783 5781 5778 5781 5780 5775 5776 5776 5772 5768 5767 5765 5753 5749 5759 5765 5769 5775 5774 5774 5777 5777 5778 5777 5775 5776 5775 5773 5771 5769 5768 5767 5766 5765 5764 5763 5761 5761 5760 5759 5758 5758 5757 5757 5757 5756 5756 5755 5755 5754 5753 5753 5752 5752 5751 5750 5749 5749 5748 5747 5747 5746 5745 5745 5744 5743 5743 5742 5741 5741 5741 5740 5739 5738
5781 5788 5790 5785 5785 5786 5786 5786 5785 5783 5781 5779 5778 5779 5778 5776 5774 5772 5771 5768 5763 5760 5762 5762 5748 5740 5750 5757 5761 5768 5768 5769 5772 5772 5773 5773 5770 5770 5770 5769 5767 5764 5763 5762 5761 5760 5759 5758 5757 5756 5755 5754 5753 5753 5753 5752 5752 5751 5751 5750 5749 5748 5748 5747 5747 5746 5746 5745 5744 5744 5743 5742 5741 5740 5740 5739 5738 5737 5737 5737 5736 5735 5735 5734 5733 5732
5775 5785 5785 5782 5781 5780 5779 5778 5780 5780 5777 5773 5772 5775 5776 5772 5770 5768 5767 5763 5757 5753 5753 5754 5746 5736 5739 5748 5755 5758 5759 5762 5766 5767 5768 5768 5766 5764 5764 5764 5763 5761 5759 5757 5756 5755 5754 5753 5752 5751 5750 5750 5749 5749 5748 5747 5747 5746 5746 5745 5744 5743 5742 5742 5741 5741 5740 5740 5739 5738 5738 5737 5736 5735 5734 5733 5733 5732 5731 5731 5730 5729 5729 5728 5727 5726
5773 5778 5776 5777 5777 5773 5772 5773 5775 5775 5770 5767 5768 5769 5769 5767 5766 5764 5762 5759 5754 5751 5746 5743 5742 5736 5731 5739 5748 5748 5748 5753 5758 5762 5763 5762 5760 5758 5758 5757 5757 5755 5754 5753 5751 5750 5749 5748 5747 5746 5746 5746 5745 5744 5744 5743 5742 5742 5741 5740 5739 5738 5737 5736 5736 5736 5735 5735 5734 5734 5733 5732 5731 5730 5729 5727 5726 5726 5725 5725 5724 5724 5723 5722 5721 5720
5769 5769 5768 5769 5768 5766 5768 5770 5769 5767 5763 5764 5764 5762 5761 5761 5760 5759 5757 5754 5751 5747 5741 5736 5739 5737 5728 5732 5741 5739 5738 5744 5749 5754 5755 5755 5754 5753 5753 5753 5751 5749 5748 5747 5746 5745 5744 5742 5741 5741 5741 5741 5741 5740 5739 5738 5738 5737 5736 5735 5734 5733 5732 5731 5731 5731 5731 5730 5729 5729 5728 5727 5726 5725 5723 5721 5719 5719 5719 5719 5718 5718 5717 5716 5715 5714
5763 5763 5762 5760 5759 5760 5763 5763 5762 5760 5759 5759 5758 5756 5755 5754 5753 5753 5751 5749 5747 5740 5734 5732 5735 5737 5728 5726 5732 5732 5733 5738 5742 5745 5746 5747 5748 5746 5748 5749 5746 5744 5742 5740 5740 5739 5738 5737 5737 5737 5737 5736 5736 5735 5735 5733 5733 5732 5731 5730 5729 5728 5727 5726 5726 5726 5725 5725 5725 5724 5724 5723 5722 5720 5719 5716 5713 5712 5713 5713 5712 5711 5710 5710 5709 5708
5758 5757 5755 5753 5754 5755 5755 5755 5754 5754 5753 5753 5753 5751 5749 5747 5746 5745 5743 5742 5740 5732 5731 5731 5733 5736 5727 5717 5721 5725 5728 5733 5735 5738 5739 5739 5740 5740 5742 5745 5742 5738 5735 5732 5732 5733 5732 5732 5732 5732 5731 5731 5730 5729 5729 5728 5727 5726 5725 5724 5724 5723 5722 5721 5721 5720 5720 5719 5719 5718 5718 5718 5717 5716 5715 5713 5708 5706 5706 5706 5705 5704 5703 5703 5702 5701
5751 5749 5749 5749 5749 5749 5748 5748 5748 5747 5747 5747 5747 5744 5742 5741 5739 5736 5734 5735 5732 5726 5728 5730 5731 5733 5724 5713 5714 5718 5720 5725 5727 5730 5731 5731 5733 5732 5733 5738 5739 5734 5730 5726 5724 5724 5725 5726 5726 5726 5725 5724 5724 5723 5722 5721 5720 5720 5719 5718 5718 5717 5717 5715 5715 5714 5714 5713 5712 5711 5711 5711 5711 5711 5710 5708 5705 5701 5699 5699 5698 5698 5696 5695 5695 5694
5743 5744 5744 5743 5743 5744 5743 5742 5742 5741 5742 5741 5739 5737 5735 5733 5730 5727 5727 5727 5726 5724 5726 5727 5726 5723 5715 5711 5714 5715 5716 5719 5720 5720 5721 5723 5725 5723 5723 5729 5733 5730 5726 5723 5720 5717 5716 5716 5717 5717 5717 5716 5716 5716 5715 5714 5713 5713 5712 5712 5712 5711 5710 5709 5708 5707 5707 5706 5705 5704 5704 5705 5705 5704 5704 5703 5701 5696 5694 5692 5692 5691 5690 5689 5687 5686
5735 5738 5739 5735 5736 5740 5738 5736 5735 5735 5736 5734 5732 5731 5728 5726 5721 5718 5721 5721 5720 5721 5722 5722 5719 5711 5707 5707 5710 5712 5714 5715 5714 5714 5715 5716 5717 5714 5714 5720 5725 5724 5721 5719 5717 5714 5712 5710 5708 5707 5707 5708 5708 5708 5707 5707 5706 5706 5706 5705 5705 5704 5703 5702 5701 5700 5700 5699 5697 5697 5697 5697 5697 5697 5697 5697 5695 5692 5689 5687 5686 5685 5684 5682 5681 5680
5727 5730 5735 5731 5730 5733 5731 5729 5730 5728 5728 5726 5725 5724 5720 5719 5716 5713 5717 5717 5713 5714 5715 5713 5709 5705 5704 5704 5704 5706 5707 5707 5707 5709 5710 5710 5710 5707 5705 5711 5717 5717 5715 5713 5711 5710 5709 5707 5704 5701 5699 5699 5700 5701 5700 5700 5699 5699 5699 5699 5698 5697 5696 5695 5694 5693 5693 5692 5690 5690 5690 5690 5689 5689 5690 5689 5688 5687 5684 5682 5680 5679 5678 5677 5675 5674
5718 5720 5729 5726 5723 5726 5725 5724 5724 5721 5720 5719 5718 5714 5712 5715 5714 5710 5710 5711 5708 5705 5706 5703 5699 5700 5703 5700 5700 5701 5699 5700 5701 5702 5704 5703 5703 5701 5699 5704 5709 5710 5709 5708 5706 5705 5703 5702 5701 5698 5695 5693 5693 5693 5693 5692 5692 5692 5692 5692 5691 5690 5689 5688 5687 5686 5686 5685 5684 5683 5683 5682 5682 5681 5681 5681 5680 5679 5679 5677 5675 5673 5672 5671 5669 5667
5708 5709 5719 5718 5713 5717 5717 5716 5717 5714 5712 5712 5709 5707 5709 5711 5710 5704 5701 5704 5704 5696 5696 5697 5691 5693 5698 5694 5694 5696 5694 5696 5696 5695 5696 5695 5695 5695 5694 5696 5700 5701 5703 5702 5700 5699 5697 5696 5695 5693 5691 5688 5687 5685 5684 5683 5684 5684 5685 5684 5684 5683 5682 5681 5680 5679 5678 5677 5677 5677 5676 5674 5674 5674 5673 5673 5672 5671 5672 5670 5669 5667 5666 5664 5662 5661
5700 5696 5706 5710 5705 5707 5708 5707 5708 5707 5704 5702 5702 5705 5706 5703 5701 5697 5692 5694 5696 5688 5687 5691 5686 5685 5690 5688 5688 5690 5689 5689 5688 5687 5688 5688 5688 5688 5688 5690 5690 5690 5692 5694 5695 5693 5691 5690 5688 5688 5686 5684 5682 5680 5677 5676 5675 5676 5677 5677 5676 5674 5674 5673 5672 5671 5669 5669 5669 5669 5668 5667 5666 5666 5665 5665 5664 5663 5663 5663 5662 5661 5659 5657 5656 5654
5692 5684 5690 5699 5698 5697 5699 5698 5697 5698 5696 5695 5698 5701 5699 5694 5692 5690 5684 5682 5685 5680 5677 5683 5682 5679 5683 5685 5685 5685 5685 5683 5680 5680 5681 5680 5680 5680 5681 5684 5684 5681 5681 5684 5687 5688 5686 5685 5683 5681 5679 5678 5677 5676 5673 5670 5668 5668 5669 5668 5667 5666 5666 5666 5664 5663 5662 5661 5661 5660 5660 5659 5658 5658 5657 5656 5656 5655 5655 5655 5654 5653 5652 5650 5649 5647
5684 5675 5674 5685 5690 5688 5689 5690 5689 5690 5689 5687 5688 5689 5688 5687 5684 5680 5676 5674 5675 5670 5666 5671 5673 5674 5679 5684 5684 5681 5679 5678 5674 5674 5676 5674 5674 5674 5672 5675 5677 5674 5672 5674 5679 5681 5680 5680 5678 5675 5672 5670 5670 5669 5667 5665 5663 5663 5662 5660 5659 5658 5658 5658 5657 5656 5655 5654 5653 5652 5651 5650 5650 5649 5648 5648 5647 5647 5647 5646 5645 5644 5643 5642 5640 5638
5674 5668 5664 5670 5676 5676 5678 5682 5682 5683 5682 5677 5676 5677 5678 5679 5676 5670 5666 5667 5668 5661 5657 5658 5658 5669 5681 5680 5678 5678 5674 5673 5670 5669 5670 5670 5670 5670 5667 5667 5668 5667 5663 5662 5667 5672 5673 5673 5671 5668 5665 5663 5663 5662 5660 5658 5658 5657 5656 5654 5652 5651 5650 5650 5649 5649 5648 5646 5646 5645 5644 5643 5641 5640 5640 5639 5638 5638 5638 5637 5636 5635 5634 5633 5631 5629
5662 5659 5656 5657 5660 5662 5668 5674 5673 5673 5672 5668 5666 5667 5669 5670 5667 5659 5652 5656 5661 5652 5648 5647 5640 5655 5678 5675 5671 5675 5669 5666 5668 5664 5663 5664 5664 5664 5662 5660 5661 5660 5658 5654 5654 5658 5661 5661 5660 5657 5656 5655 5656 5655 5653 5651 5651 5651 5649 5647 5645 5644 5643 5642 5642 5641 5640 5639 5638 5638 5637 5635 5634 5633 5632 5631 5630 5630 5629 5628 5627 5626 5625 5624 5622 5621
5654 5650 5647 5646 5649 5651 5656 5663 5663 5661 5662 5659 5655 5656 5660 5660 5657 5651 5643 5645 5648 5639 5638 5639 5624 5636 5669 5672 5665 5669 5664 5659 5661 5660 5658 5659 5659 5657 5654 5652 5652 5652 5652 5650 5647 5647 5646 5647 5647 5645 5643 5643 5645 5646 5645 5644 5643 5642 5640 5639 5637 5637 5636 5634 5634 5633 5633 5632 5632 5631 5629 5628 5627 5625 5624 5623 5622 5622 5621 5620 5620 5618 5617 5615 5614 5612
5648 5643 5639 5637 5640 5642 5645 5651 5654 5653 5652 5647 5645 5648 5649 5648 5647 5643 5636 5635 5633 5626 5628 5627 5611 5620 5656 5665 5656 5658 5658 5652 5653 5653 5653 5654 5654 5650 5644 5643 5643 5643 5644 5644 5642 5640 5638 5635 5635 5633 5632 5632 5633 5635 5635 5634 5634 5632 5631 5630 5628 5628 5628 5627 5626 5625 5625 5625 5625 5623 5622 5620 5619 5617 5616 5615 5614 5613 5613 5612 5611 5609 5608 5607 5605 5604
5641 5637 5633 5629 5629 5631 5634 5640 5644 5645 5642 5636 5636 5639 5638 5638 5638 5632 5629 5626 5617 5615 5621 5615 5600 5612 5642 5652 5646 5648 5648 5645 5647 5649 5647 5646 5645 5642 5636 5635 5635 5635 5635 5636 5635 5632 5630 5627 5625 5624 5623 5623 5624 5624 5624 5623 5623 5622 5620 5619 5618 5619 5619 5618 5618 5618 5617 5617 5616 5615 5614 5612 5611 5610 5608 5607 5606 5605 5604 5603 5602 5600 5599 5598 5596 5594
5630 5627 5627 5623 5619 5620 5623 5629 5636 5637 5632 5627 5628 5631 5631 5631 5630 5624 5621 5615 5606 5609 5613 5604 5597 5609 5628 5635 5635 5638 5639 5638 5641 5643 5641 5637 5634 5633 5631 5629 5628 5627 5627 5628 5627 5623 5620 5618 5616 5615 5614 5614 5614 5614 5614 5614 5613 5612 5611 5610 5610 5610 5610 5610 5610 5609 5608 5607 5607 5606 5606 5604 5603 5602 5600 5598 5597 5597 5596 5594 5593 5591 5589 5588 5587 5585
5618 5614 5619 5616 5610 5611 5614 5619 5626 5627 5621 5618 5620 5624 5625 5624 5622 5618 5612 5605 5603 5603 5598 5596 5600 5604 5611 5620 5625 5630 5633 5632 5634 5634 5631 5628 5625 5624 5625 5623 5621 5621 5620 5620 5617 5613 5610 5608 5607 5606 5605 5605 5605 5605 5605 5605 5604 5603 5602 5602 5602 5602 5602 5602 5602 5601 5600 5599 5598 5598 5597 5596 5595 5593 5592 5590 5589 5588 5587 5585 5583 5582 5580 5579 5577 5575
5606 5600 5607 5606 5599 5602 5606 5608 5615 5614 5609 5609 5611 5614 5616 5616 5614 5610 5602 5600 5603 5594 5583 5592 5602 5595 5596 5609 5615 5619 5625 5625 5625 5625 5621 5618 5617 5617 5617 5616 5615 5615 5614 5612 5607 5603 5600 5599 5598 5597 5596 5595 5596 5596 5595 5595 5594 5594 5594 5594 5594 5594 5594 5594 5593 5593 5592 5591 5590 5589 5589 5588 5586 5585 5584 5582 5581 5580 5578 5576 5575 5573 5571 5569 5567 5565
5595 5587 5595 5596 5588 5591 5595 5595 5600 5600 5597 5599 5600 5601 5606 5607 5604 5600 5595 5597 5599 5585 5576 5588 5594 5586 5588 5600 5604 5609 5614 5615 5614 5613 5611 5611 5612 5611 5609 5608 5608 5608 5607 5603 5598 5594 5592 5591 5591 5590 5588 5587 5587 5586 5586 5585 5584 5585 5585 5586 5586 5585 5586 5586 5585 5585 5583 5582 5582 5581 5580 5579 5578 5577 5575 5574 5572 5571 5569 5568 5566 5564 5562 5560 5558 5556
5585 5577 5585 5588 5579 5579 5582 5582 5585 5586 5583 5584 5587 5589 5593 5594 5593 5590 5587 5590 5590 5578 5574 5581 5580 5576 5583 5591 5594 5599 5602 5600 5598 5600 5602 5603 5605 5606 5604 5600 5600 5601 5597 5593 5590 5587 5585 5584 5584 5582 5580 5579 5578 5577 5577 5576 5576 5576 5576 5577 5577 5577 5577 5577 5576 5576 5574 5574 5573 5572 5571 5570 5568 5567 5566 5565 5563 5562 5560 5558 5556 5554 5553 5551 5549 5548
5578 5572 5577 5579 5569 5565 5572 5574 5572 5572 5570 5569 5572 5577 5580 5579 5579 5579 5578 5579 5577 5570 5570 5573 5565 5563 5576 5585 5585 5586 5585 5583 5582 5585 5589 5592 5595 5597 5595 5591 5591 5590 5586 5582 5580 5580 5579 5576 5575 5574 5571 5569 5568 5568 5568 5568 5567 5567 5567 5567 5567 5568 5568 5567 5567 5567 5566 5565 5564 5563 5562 5561 5559 5558 5557 5556 5554 5553 5551 5549 5547 5545 5544 5542 5540 5539
5571 5565 5567 5570 5556 5550 5563 5566 5560 5561 5560 5554 5557 5566 5570 5569 5567 5568 5568 5568 5565 5561 5561 5560 5553 5553 5568 5575 5570 5568 5569 5569 5568 5571 5574 5577 5581 5582 5579 5577 5578 5577 5573 5571 5571 5571 5570 5567 5565 5563 5560 5559 5558 5558 5558 5557 5557 5557 5557 5558 5558 5558 5557 5556 5556 5556 5555 5555 5554 5553 5551 5550 5549 5548 5547 5546 5544 5543 5541 5539 5538 5536 5535 5533 5532 5530
5562 5556 5557 5558 5544 5538 5552 5555 5550 5551 5543 5533 5545 5559 5562 5560 5558 5556 5555 5555 5556 5554 5548 5544 5543 5549 5557 5557 5552 5552 5556 5556 5557 5560 5562 5563 5565 5565 5563 5563 5563 5564 5563 5562 5563 5561 5558 5555 5553 5551 5550 5550 5548 5547 5546 5545 5545 5546 5548 5548 5548 5548 5546 5545 5545 5544 5544 5544 5543 5541 5540 5539 5539 5538 5537 5536 5534 5533 5531 5530 5529 5528 5526 5525 5523 5522
5552 5548 5547 5547 5536 5529 5538 5544 5540 5533 5519 5518 5538 5552 5550 5550 5549 5544 5542 5543 5546 5544 5538 5534 5535 5541 5544 5541 5539 5540 5541 5543 5546 5549 5550 5550 5548 5548 5549 5551 5551 5552 5553 5553 5551 5549 5545 5543 5542 5541 5540 5539 5538 5536 5535 5534 5534 5536 5537 5538 5538 5537 5536 5535 5534 5533 5533 5533 5531 5530 5530 5529 5529 5528 5527 5526 5524 5523 5522 5521 5520 5519 5518 5516 5514 5512
5541 5540 5537 5537 5530 5523 5529 5534 5524 5509 5506 5516 5530 5536 5536 5538 5539 5534 5530 5533 5536 5534 5531 5527 5525 5527 5528 5527 5527 5527 5528 5532 5535 5536 5538 5538 5536 5534 5534 5537 5540 5541 5541 5540 5538 5536 5534 5532 5531 5530 5529 5528 5527 5526 5524 5524 5525 5524 5525 5527 5527 5525 5525 5524 5523 5523 5523 5522 5520 5520 5520 5519 5519 5518 5517 5516 5515 5514 5513 5512 5511 5510 5508 5507 5505 5503
5532 5530 5527 5525 5522 5518 5518 5518 5505 5497 5505 5513 5515 5521 5528 5528 5529 5526 5518 5521 5527 5523 5518 5515 5512 5512 5512 5511 5513 5514 5515 5518 5519 5521 5526 5525 5522 5519 5517 5520 5525 5526 5525 5524 5523 5522 5522 5522 5521 5519 5517 5516 5515 5514 5514 5514 5514 5514 5515 5516 5515 5514 5514 5513 5513 5513 5513 5511 5510 5509 5509 5509 5508 5508 5507 5506 5505 5505 5504 5503 5502 5501 5499 5498 5497 5495
5521 5518 5517 5512 5509 5510 5507 5501 5496 5494 5498 5500 5504 5514 5520 5518 5521 5519 5509 5509 5512 5505 5501 5503 5501 5498 5496 5496 5497 5499 5501 5503 5503 5508 5512 5508 5505 5507 5506 5506 5508 5509 5510 5511 5510 5510 5510 5510 5509 5507 5505 5504 5503 5503 5503 5503 5503 5503 5505 5506 5505 5504 5503 5503 5503 5503 5501 5500 5499 5499 5499 5499 5499 5499 5498 5497 5497 5496 5496 5495 5494 5493 5491 5490 5488 5486
5511 5508 5507 5500 5497 5501 5498 5491 5491 5488 5484 5490 5500 5506 5506 5505 5510 5510 5501 5496 5492 5486 5489 5494 5490 5484 5482 5482 5484 5486 5489 5491 5490 5495 5498 5495 5496 5500 5499 5497 5497 5497 5499 5500 5499 5499 5500 5499 5499 5497 5495 5494 5493 5493 5493 5492 5492 5494 5495 5495 5494 5493 5493 5493 5494 5492 5490 5489 5489 5489 5490 5490 5490 5490 5489 5488 5488 5487 5487 5486 5485 5484 5483 5481 5480 5478
5499 5498 5498 5491 5488 5493 5490 5482 5483 5481 5478 5484 5491 5493 5495 5496 5498 5498 5487 5477 5474 5474 5478 5481 5477 5472 5471 5471 5471 5472 5476 5478 5478 5481 5484 5484 5487 5489 5487 5488 5489 5488 5488 5488 5487 5488 5489 5488 5488 5487 5486 5484 5484 5484 5483 5482 5483 5484 5484 5484 5483 5482 5483 5483 5483 5482 5480 5479 5479 5480 5480 5481 5480 5480 5479 5479 5478 5478 5477 5477 5476 5475 5474 5473 5471 5469
5485 5486 5487 5483 5480 5483 5481 5474 5473 5474 5473 5476 5478 5482 5485 5485 5486 5483 5471 5461 5464 5466 5465 5465 5462 5459 5460 5462 5460 5460 5463 5464 5465 5468 5470 5470 5473 5474 5473 5475 5477 5476 5476 5476 5476 5476 5477 5476 5476 5476 5475 5474 5473 5473 5472 5471 5472 5473 5473 5472 5472 5472 5474 5474 5473 5472 5470 5469 5470 5470 5471 5471 5470 5470 5469 5469 5468 5468 5468 5467 5467 5466 5465 5464 5462 5461
5470 5471 5472 5470 5469 5471 5470 5463 5462 5465 5465 5465 5468 5470 5471 5473 5475 5469 5456 5450 5455 5456 5454 5453 5451 5449 5451 5451 5450 5451 5453 5452 5452 5455 5457 5458 5460 5461 5461 5461 5463 5464 5465 5465 5466 5466 5466 5465 5465 5464 5464 5463 5462 5462 5461 5460 5461 5463 5463 5462 5462 5464 5465 5464 5463 5462 5461 5460 5461 5461 5462 5462 5461 5460 5460 5459 5459 5459 5459 5458 5458 5456 5455 5455 5454 5453
5454 5454 5454 5455 5455 5458 5457 5451 5450 5454 5455 5454 5457 5458 5459 5460 5458 5450 5443 5442 5443 5444 5445 5444 5441 5441 5442 5441 5441 5441 5441 5442 5442 5442 5444 5445 5446 5449 5451 5451 5452 5453 5453 5453 5454 5455 5455 5455 5454 5453 5453 5452 5451 5451 5451 5451 5452 5453 5453 5453 5454 5454 5454 5454 5454 5453 5452 5451 5452 5452 5453 5453 5452 5451 5451 5450 5451 5451 5450 5449 5448 5447 5446 5445 5445 5444
5440 5437 5438 5442 5443 5441 5441 5439 5439 5439 5442 5446 5447 5446 5447 5445 5438 5431 5432 5436 5434 5431 5431 5431 5431 5430 5429 5430 5431 5430 5429 5431 5432 5432 5434 5435 5435 5436 5438 5440 5440 5441 5442 5442 5443 5443 5443 5443 5443 5443 5442 5442 5441 5441 5441 5442 5443 5444 5444 5444 5444 5444 5444 5445 5444 5444 5443 5442 5443 5443 5443 5442 5442 5441 5441 5441 5441 5441 5441 5440 5438 5437 5436 5435 5435 5434
5429 5428 5425 5428 5429 5426 5422 5422 5423 5424 5429 5435 5434 5432 5433 5430 5423 5420 5422 5425 5425 5420 5415 5416 5419 5419 5417 5417 5418 5418 5418 5420 5421 5422 5424 5424 5424 5425 5425 5427 5428 5429 5431 5431 5432 5432 5433 5432 5433 5433 5433 5432 5432 5432 5432 5433 5434 5435 5435 5435 5435 5434 5435 5436 5435 5434 5433 5433 5433 5433 5432 5432 5432 5431 5431 5431 5431 5432 5432 5431 5429 5427 5427 5426 5425 5424
5415 5420 5415 5410 5412 5412 5407 5406 5410 5414 5418 5421 5418 5415 5416 5413 5409 5410 5413 5415 5415 5410 5405 5405 5406 5407 5405 5404 5404 5406 5408 5408 5409 5412 5412 5413 5414 5415 5414 5416 5418 5418 5419 5420 5421 5421 5422 5422 5423 5424 5423 5423 5424 5423 5423 5424 5424 5425 5426 5426 5425 5426 5426 5426 5425 5425 5424 5423 5423 5422 5422 5422 5422 5421 5421 5420 5421 5422 5422 5421 5419 5418 5417 5416 5415 5414
5401 5405 5403 5397 5395 5396 5394 5398 5403 5403 5405 5409 5406 5400 5397 5396 5396 5399 5402 5402 5400 5397 5395 5393 5393 5394 5394 5391 5391 5394 5396 5396 5398 5400 5401 5401 5403 5404 5404 5406 5407 5407 5408 5409 5410 5410 5411 5412 5413 5414 5414 5415 5415 5414 5413 5413 5414 5416 5416 5415 5416 5417 5417 5416 5416 5415 5414 5414 5413 5413 5413 5412 5412 5411 5411 5410 5410 5411 5411 5410 5409 5408 5407 5406 5404 5403
5391 5390 5388 5385 5383 5381 5382 5390 5393 5389 5390 5398 5397 5387 5381 5381 5385 5388 5388 5386 5383 5380 5380 5380 5379 5381 5382 5380 5378 5380 5382 5385 5386 5387 5389 5391 5391 5392 5393 5394 5395 5397 5397 5398 5399 5399 5400 5401 5403 5403 5404 5405 5405 5404 5402 5403 5405 5406 5405 5405 5406 5406 5406 5406 5406 5405 5405 5404 5403 5403 5403 5402 5401 5401 5401 5400 5399 5399 5400 5399 5398 5397 5396 5395 5394 5393
5381 5379 5376 5375 5374 5369 5368 5374 5378 5375 5377 5384 5383 5376 5372 5370 5372 5374 5373 5370 5367 5365 5364 5364 5365 5367 5369 5368 5366 5365 5368 5372 5373 5372 5375 5378 5379 5380 5380 5381 5383 5385 5386 5386 5387 5387 5388 5390 5391 5392 5392 5394 5395 5394 5392 5392 5394 5394 5393 5394 5395 5395 5395 5395 5395 5395 5394 5393 5393 5393 5393 5392 5392 5391 5390 5389 5388 5387 5387 5386 5386 5385 5385 5384 5383 5382
5366 5366 5366 5365 5361 5357 5358 5361 5361 5360 5363 5369 5369 5363 5361 5361 5360 5358 5357 5355 5354 5352 5350 5349 5350 5353 5354 5355 5354 5352 5353 5358 5360 5358 5358 5362 5366 5367 5367 5368 5370 5372 5373 5374 5374 5374 5375 5377 5378 5379 5379 5381 5383 5382 5380 5382 5383 5382 5382 5382 5383 5383 5383 5383 5383 5383 5383 5383 5383 5383 5382 5382 5381 5381 5379 5377 5376 5376 5376 5376 5375 5375 5374 5373 5372 5372
5355 5353 5355 5351 5345 5346 5350 5350 5346 5342 5346 5354 5356 5348 5345 5346 5345 5343 5342 5341 5340 5338 5336 5334 5335 5337 5338 5339 5340 5338 5338 5341 5344 5344 5343 5347 5350 5351 5353 5356 5358 5358 5360 5361 5360 5361 5362 5362 5363 5364 5365 5368 5370 5369 5368 5370 5371 5370 5369 5370 5370 5370 5371 5371 5372 5372 5372 5372 5372 5372 5371 5370 5370 5369 5368 5366 5366 5366 5366 5365 5365 5365 5364 5363 5362 5360
5346 5343 5344 5340 5335 5336 5338 5337 5333 5330 5331 5336 5338 5332 5329 5329 5328 5327 5328 5327 5324 5324 5323 5320 5320 5322 5323 5325 5325 5324 5322 5324 5328 5328 5328 5331 5334 5334 5336 5340 5344 5346 5348 5348 5346 5347 5347 5347 5347 5347 5349 5353 5356 5355 5356 5358 5358 5357 5356 5356 5356 5356 5356 5357 5359 5359 5360 5360 5360 5360 5360 5359 5358 5358 5357 5357 5356 5356 5356 5355 5355 5355 5354 5353 5351 5350